Time,TemperatureF,DewpointF,PressureIn,WindDirection,WindDirectionDegrees,WindSpeedMPH,WindSpeedGustMPH,Humidity,HourlyPrecipIn,Conditions,Clouds,dailyrainin,SoftwareType,DateUTC
2013-01-22 00:04:00,2.0,-5.2,30.32,WNW,284,6.0,27.0,71,0.00,,,0.00,Wunderground v.1.15,2013-01-22 06:04:00,
2013-01-22 00:09:00,1.9,-5.3,30.31,NW,324,5.0,27.0,71,0.00,,,0.00,Wunderground v.1.15,2013-01-22 06:09:00,
2013-01-22 00:14:00,1.8,-5.2,30.32,WNW,283,5.0,27.0,72,0.00,,,0.00,Wunderground v.1.15,2013-01-22 06:14:00,
2013-01-22 00:19:00,1.8,-5.4,30.32,NW,316,6.0,27.0,71,0.00,,,0.00,Wunderground v.1.15,2013-01-22 06:19:00,
2013-01-22 00:24:00,1.8,-5.7,30.32,NNW,327,7.0,27.0,70,0.00,,,0.00,Wunderground v.1.15,2013-01-22 06:24:00,
2013-01-22 00:29:00,1.7,-5.8,30.32,WNW,284,6.0,27.0,70,0.00,,,0.00,Wunderground v.1.15,2013-01-22 06:29:00,
2013-01-22 00:34:00,1.6,-5.9,30.32,NNW,327,7.0,27.0,70,0.00,,,0.00,Wunderground v.1.15,2013-01-22 06:34:00,
2013-01-22 00:39:00,1.6,-5.9,30.32,WNW,289,8.0,8.0,70,0.00,,,0.00,Wunderground v.1.15,2013-01-22 06:39:00,
2013-01-22 00:44:00,1.6,-5.9,30.32,WNW,291,7.0,27.0,70,0.00,,,0.00,Wunderground v.1.15,2013-01-22 06:44:00,
2013-01-22 00:49:00,1.5,-5.7,30.32,WNW,288,6.0,6.0,71,0.00,,,0.00,Wunderground v.1.15,2013-01-22 06:49:00,
2013-01-22 00:54:00,1.4,-5.8,30.32,WNW,292,7.0,7.0,71,0.00,,,0.00,Wunderground v.1.15,2013-01-22 06:54:00,
2013-01-22 00:59:00,1.4,-5.8,30.32,NW,313,8.0,8.0,71,0.00,,,0.00,Wunderground v.1.15,2013-01-22 06:59:00,
2013-01-22 01:04:00,1.3,-5.6,30.32,NW,304,7.0,27.0,72,0.00,,,0.00,Wunderground v.1.15,2013-01-22 07:04:00,
2013-01-22 01:09:00,1.3,-5.6,30.32,WNW,288,7.0,7.0,72,0.00,,,0.00,Wunderground v.1.15,2013-01-22 07:09:00,
2013-01-22 01:14:00,1.2,-5.7,30.32,NW,310,8.0,9.0,72,0.00,,,0.00,Wunderground v.1.15,2013-01-22 07:14:00,
2013-01-22 01:19:00,1.1,-5.5,30.32,WNW,292,7.0,7.0,73,0.00,,,0.00,Wunderground v.1.15,2013-01-22 07:19:00,
2013-01-22 01:24:00,1.0,-5.1,30.33,NW,325,6.0,27.0,75,0.00,,,0.00,Wunderground v.1.15,2013-01-22 07:24:00,
2013-01-22 01:29:00,1.0,-4.8,30.32,WNW,296,6.0,27.0,76,0.00,,,0.00,Wunderground v.1.15,2013-01-22 07:29:00,
2013-01-22 01:34:00,0.9,-4.9,30.33,NNW,335,6.0,27.0,76,0.00,,,0.00,Wunderground v.1.15,2013-01-22 07:34:00,
2013-01-22 01:39:00,0.9,-4.9,30.33,NW,306,5.0,5.0,76,0.00,,,0.00,Wunderground v.1.15,2013-01-22 07:39:00,
2013-01-22 01:44:00,0.8,-5.3,30.33,NW,324,4.0,27.0,75,0.00,,,0.00,Wunderground v.1.15,2013-01-22 07:44:00,
2013-01-22 01:49:00,0.7,-5.6,30.33,West,276,4.0,27.0,74,0.00,,,0.00,Wunderground v.1.15,2013-01-22 07:49:00,
2013-01-22 01:59:00,0.5,-6.1,30.33,NW,318,6.0,6.0,73,0.00,,,0.00,Wunderground v.1.15,2013-01-22 07:59:00,
2013-01-22 02:09:00,0.3,-5.8,30.34,NNW,327,4.0,27.0,75,0.00,,,0.00,Wunderground v.1.15,2013-01-22 08:09:00,
2013-01-22 02:14:00,0.3,-5.8,30.34,NNW,337,4.0,27.0,75,0.00,,,0.00,Wunderground v.1.15,2013-01-22 08:14:00,
2013-01-22 02:19:00,0.2,-5.9,30.34,NNW,333,4.0,27.0,75,0.00,,,0.00,Wunderground v.1.15,2013-01-22 08:19:00,
2013-01-22 02:24:00,0.2,-5.6,30.34,NNW,329,5.0,27.0,76,0.00,,,0.00,Wunderground v.1.15,2013-01-22 08:24:00,
2013-01-22 02:29:00,0.1,-5.7,30.34,WNW,296,4.0,27.0,76,0.00,,,0.00,Wunderground v.1.15,2013-01-22 08:29:00,
2013-01-22 02:34:00,0.1,-5.4,30.35,NW,307,4.0,27.0,77,0.00,,,0.00,Wunderground v.1.15,2013-01-22 08:34:00,
2013-01-22 02:44:00,-0.1,-5.6,30.35,NW,313,3.0,27.0,77,0.00,,,0.00,Wunderground v.1.15,2013-01-22 08:44:00,
2013-01-22 02:49:00,-0.1,-5.6,30.35,NW,306,3.0,3.0,77,0.00,,,0.00,Wunderground v.1.15,2013-01-22 08:49:00,
2013-01-22 02:54:00,-0.3,-5.8,30.35,NW,319,3.0,4.0,77,0.00,,,0.00,Wunderground v.1.15,2013-01-22 08:54:00,
2013-01-22 02:59:00,-0.3,-5.8,30.35,NW,305,3.0,3.0,77,0.00,,,0.00,Wunderground v.1.15,2013-01-22 08:59:00,
2013-01-22 03:09:00,-0.4,-5.9,30.35,NW,320,4.0,27.0,77,0.00,,,0.00,Wunderground v.1.15,2013-01-22 09:09:00,
2013-01-22 03:14:00,-0.4,-5.9,30.35,NW,324,4.0,27.0,77,0.00,,,0.00,Wunderground v.1.15,2013-01-22 09:14:00,
2013-01-22 03:20:00,-0.4,-5.9,30.35,NNW,347,4.0,4.0,77,0.00,,,0.00,Wunderground v.1.15,2013-01-22 09:20:00,
2013-01-22 03:25:00,-0.5,-6.0,30.36,NNW,327,3.0,27.0,77,0.00,,,0.00,Wunderground v.1.15,2013-01-22 09:25:00,
2013-01-22 03:30:00,-0.5,-6.0,30.36,WNW,300,3.0,3.0,77,0.00,,,0.00,Wunderground v.1.15,2013-01-22 09:30:00,
2013-01-22 03:35:00,-0.5,-6.0,30.36,WNW,298,3.0,27.0,77,0.00,,,0.00,Wunderground v.1.15,2013-01-22 09:35:00,
2013-01-22 03:40:00,-0.6,-6.4,30.36,NW,313,3.0,3.0,76,0.00,,,0.00,Wunderground v.1.15,2013-01-22 09:40:00,
2013-01-22 03:45:00,-0.6,-6.4,30.36,NW,312,3.0,27.0,76,0.00,,,0.00,Wunderground v.1.15,2013-01-22 09:45:00,
2013-01-22 03:50:00,-0.7,-6.5,30.35,NNW,336,3.0,27.0,76,0.00,,,0.00,Wunderground v.1.15,2013-01-22 09:50:00,
2013-01-22 04:00:00,-0.7,-6.5,30.35,NW,321,5.0,27.0,76,0.00,,,0.00,Wunderground v.1.15,2013-01-22 10:00:00,
2013-01-22 04:05:00,-0.7,-6.2,30.35,NNW,327,4.0,27.0,77,0.00,,,0.00,Wunderground v.1.15,2013-01-22 10:05:00,
2013-01-22 04:10:00,-0.8,-6.3,30.35,NNW,345,4.0,4.0,77,0.00,,,0.00,Wunderground v.1.15,2013-01-22 10:10:00,
2013-01-22 04:15:00,-0.9,-6.4,30.35,NNW,338,3.0,5.0,77,0.00,,,0.00,Wunderground v.1.15,2013-01-22 10:15:00,
2013-01-22 04:20:00,-0.9,-6.4,30.35,NNW,343,3.0,27.0,77,0.00,,,0.00,Wunderground v.1.15,2013-01-22 10:20:00,
2013-01-22 04:25:00,-1.1,-6.6,30.36,NNE,15,2.0,27.0,77,0.00,,,0.00,Wunderground v.1.15,2013-01-22 10:25:00,
2013-01-22 04:30:00,-1.3,-6.2,30.36,North,5,3.0,3.0,79,0.00,,,0.00,Wunderground v.1.15,2013-01-22 10:30:00,
2013-01-22 04:35:00,-1.5,-6.4,30.36,North,5,3.0,27.0,79,0.00,,,0.00,Wunderground v.1.15,2013-01-22 10:35:00,
2013-01-22 04:40:00,-1.6,-6.3,30.36,North,5,2.0,2.0,80,0.00,,,0.00,Wunderground v.1.15,2013-01-22 10:40:00,
2013-01-22 04:45:00,-1.7,-6.4,30.36,North,5,2.0,27.0,80,0.00,,,0.00,Wunderground v.1.15,2013-01-22 10:45:00,
2013-01-22 04:55:00,-1.8,-6.2,30.36,North,5,1.0,27.0,81,0.00,,,0.00,Wunderground v.1.15,2013-01-22 10:55:00,
2013-01-22 05:00:00,-1.8,-6.2,30.36,North,5,1.0,27.0,81,0.00,,,0.00,Wunderground v.1.15,2013-01-22 11:00:00,
2013-01-22 05:05:00,-1.9,-6.1,30.36,North,5,1.0,27.0,82,0.00,,,0.00,Wunderground v.1.15,2013-01-22 11:05:00,
2013-01-22 05:10:00,-1.9,-6.1,30.36,North,5,1.0,27.0,82,0.00,,,0.00,Wunderground v.1.15,2013-01-22 11:10:00,
2013-01-22 05:15:00,-2.0,-6.1,30.36,North,9,2.0,27.0,82,0.00,,,0.00,Wunderground v.1.15,2013-01-22 11:15:00,
2013-01-22 05:20:00,-2.1,-6.2,30.36,North,5,2.0,2.0,82,0.00,,,0.00,Wunderground v.1.15,2013-01-22 11:20:00,
2013-01-22 05:25:00,-2.2,-6.3,30.37,North,5,2.0,4.0,82,0.00,,,0.00,Wunderground v.1.15,2013-01-22 11:25:00,
2013-01-22 05:30:00,-2.3,-6.4,30.37,North,5,2.0,2.0,82,0.00,,,0.00,Wunderground v.1.15,2013-01-22 11:30:00,
2013-01-22 05:35:00,-2.4,-6.5,30.37,North,5,1.0,27.0,82,0.00,,,0.00,Wunderground v.1.15,2013-01-22 11:35:00,
2013-01-22 05:40:00,-2.5,-6.6,30.37,North,5,1.0,27.0,82,0.00,,,0.00,Wunderground v.1.15,2013-01-22 11:40:00,
2013-01-22 05:45:00,-2.6,-6.7,30.37,North,5,1.0,27.0,82,0.00,,,0.00,Wunderground v.1.15,2013-01-22 11:45:00,
2013-01-22 05:50:00,-2.7,-6.8,30.38,North,5,1.0,27.0,82,0.00,,,0.00,Wunderground v.1.15,2013-01-22 11:50:00,
2013-01-22 05:55:00,-2.8,-6.9,30.38,North,5,1.0,27.0,82,0.00,,,0.00,Wunderground v.1.15,2013-01-22 11:55:00,
2013-01-22 06:00:00,-2.9,-7.0,30.38,North,5,1.0,27.0,82,0.00,,,0.00,Wunderground v.1.15,2013-01-22 12:00:00,
2013-01-22 06:05:00,-3.0,-7.1,30.38,North,5,1.0,27.0,82,0.00,,,0.00,Wunderground v.1.15,2013-01-22 12:05:00,
2013-01-22 06:10:00,-3.0,-7.1,30.38,North,5,1.0,1.0,82,0.00,,,0.00,Wunderground v.1.15,2013-01-22 12:10:00,
2013-01-22 06:15:00,-3.0,-7.1,30.39,North,5,0.0,27.0,82,0.00,,,0.00,Wunderground v.1.15,2013-01-22 12:15:00,
2013-01-22 06:20:00,-3.0,-7.1,30.39,North,5,0.0,27.0,82,0.00,,,0.00,Wunderground v.1.15,2013-01-22 12:20:00,
2013-01-22 06:25:00,-3.1,-7.0,30.39,North,5,0.0,27.0,83,0.00,,,0.00,Wunderground v.1.15,2013-01-22 12:25:00,
2013-01-22 06:30:00,-3.1,-7.0,30.39,North,5,0.0,27.0,83,0.00,,,0.00,Wunderground v.1.15,2013-01-22 12:30:00,
2013-01-22 06:35:00,-3.2,-7.1,30.39,North,5,0.0,27.0,83,0.00,,,0.00,Wunderground v.1.15,2013-01-22 12:35:00,
2013-01-22 06:40:00,-3.4,-7.3,30.39,North,5,0.0,27.0,83,0.00,,,0.00,Wunderground v.1.15,2013-01-22 12:40:00,
2013-01-22 06:45:00,-3.6,-7.5,30.39,North,5,0.0,27.0,83,0.00,,,0.00,Wunderground v.1.15,2013-01-22 12:45:00,
2013-01-22 06:50:00,-3.8,-7.7,30.39,North,5,0.0,27.0,83,0.00,,,0.00,Wunderground v.1.15,2013-01-22 12:50:00,
2013-01-22 06:55:00,-3.9,-7.8,30.40,North,5,0.0,27.0,83,0.00,,,0.00,Wunderground v.1.15,2013-01-22 12:55:00,
2013-01-22 07:00:00,-3.9,-7.8,30.40,North,5,0.0,27.0,83,0.00,,,0.00,Wunderground v.1.15,2013-01-22 13:00:00,
2013-01-22 07:05:00,-3.8,-7.4,30.40,North,5,0.0,27.0,84,0.00,,,0.00,Wunderground v.1.15,2013-01-22 13:05:00,
2013-01-22 07:10:00,-3.8,-7.4,30.40,North,5,0.0,27.0,84,0.00,,,0.00,Wunderground v.1.15,2013-01-22 13:10:00,
2013-01-22 07:15:00,-3.8,-7.4,30.40,North,5,0.0,27.0,84,0.00,,,0.00,Wunderground v.1.15,2013-01-22 13:15:00,
2013-01-22 07:20:00,-3.6,-7.2,30.40,North,351,0.0,27.0,84,0.00,,,0.00,Wunderground v.1.15,2013-01-22 13:20:00,
2013-01-22 07:25:00,-3.2,-6.6,30.40,NNW,344,1.0,27.0,85,0.00,,,0.00,Wunderground v.1.15,2013-01-22 13:25:00,
2013-01-22 07:30:00,-2.9,-6.5,30.41,NW,304,3.0,27.0,84,0.00,,,0.00,Wunderground v.1.15,2013-01-22 13:30:00,
2013-01-22 07:35:00,-2.6,-6.7,30.41,WNW,302,3.0,27.0,82,0.00,,,0.00,Wunderground v.1.15,2013-01-22 13:35:00,
2013-01-22 07:40:00,-2.4,-6.8,30.41,NW,309,3.0,27.0,81,0.00,,,0.00,Wunderground v.1.15,2013-01-22 13:40:00,
2013-01-22 07:45:00,-2.2,-6.6,30.41,WNW,299,3.0,27.0,81,0.00,,,0.00,Wunderground v.1.15,2013-01-22 13:45:00,
2013-01-22 07:50:00,-2.0,-6.7,30.41,West,275,4.0,27.0,80,0.00,,,0.00,Wunderground v.1.15,2013-01-22 13:50:00,
2013-01-22 07:55:00,-1.8,-6.5,30.41,West,265,4.0,27.0,80,0.00,,,0.00,Wunderground v.1.15,2013-01-22 13:55:00,
2013-01-22 08:00:00,-1.7,-6.1,30.42,WNW,286,5.0,5.0,81,0.00,,,0.00,Wunderground v.1.15,2013-01-22 14:00:00,
2013-01-22 08:05:00,-1.6,-6.3,30.42,WNW,298,5.0,27.0,80,0.00,,,0.00,Wunderground v.1.15,2013-01-22 14:05:00,
2013-01-22 08:15:00,-1.3,-6.2,30.42,WNW,298,5.0,27.0,79,0.00,,,0.00,Wunderground v.1.15,2013-01-22 14:15:00,
2013-01-22 08:20:00,-1.3,-6.5,30.42,WSW,257,6.0,27.0,78,0.00,,,0.00,Wunderground v.1.15,2013-01-22 14:20:00,
2013-01-22 08:25:00,-1.2,-6.4,30.42,WNW,282,6.0,27.0,78,0.00,,,0.00,Wunderground v.1.15,2013-01-22 14:25:00,
2013-01-22 08:30:00,-1.3,-6.5,30.42,WNW,290,7.0,7.0,78,0.00,,,0.00,Wunderground v.1.15,2013-01-22 14:30:00,
2013-01-22 08:35:00,-0.9,-5.8,30.42,WSW,252,7.0,8.0,79,0.00,,,0.00,Wunderground v.1.15,2013-01-22 14:35:00,
2013-01-22 08:40:00,-1.0,-6.2,30.42,West,274,7.0,7.0,78,0.00,,,0.00,Wunderground v.1.15,2013-01-22 14:40:00,
2013-01-22 08:45:00,-0.8,-6.0,30.42,West,261,7.0,27.0,78,0.00,,,0.00,Wunderground v.1.15,2013-01-22 14:45:00,
2013-01-22 08:50:00,-0.7,-6.2,30.42,WSW,256,6.0,27.0,77,0.00,,,0.00,Wunderground v.1.15,2013-01-22 14:50:00,
2013-01-22 08:55:00,-0.6,-5.8,30.42,WNW,288,6.0,27.0,78,0.00,,,0.00,Wunderground v.1.15,2013-01-22 14:55:00,
2013-01-22 09:00:00,-0.7,-6.2,30.43,WNW,292,7.0,7.0,77,0.00,,,0.00,Wunderground v.1.15,2013-01-22 15:00:00,
2013-01-22 09:05:00,-0.6,-6.1,30.43,WNW,284,7.0,27.0,77,0.00,,,0.00,Wunderground v.1.15,2013-01-22 15:05:00,
2013-01-22 09:10:00,-0.5,-6.0,30.43,West,261,6.0,27.0,77,0.00,,,0.00,Wunderground v.1.15,2013-01-22 15:10:00,
2013-01-22 09:15:00,-0.3,-5.8,30.43,WNW,284,7.0,27.0,77,0.00,,,0.00,Wunderground v.1.15,2013-01-22 15:15:00,
2013-01-22 09:20:00,0.0,-5.5,30.43,West,269,8.0,8.0,77,0.00,,,0.00,Wunderground v.1.15,2013-01-22 15:20:00,
2013-01-22 09:25:00,-0.3,-6.1,30.43,West,277,7.0,12.0,76,0.00,,,0.00,Wunderground v.1.15,2013-01-22 15:25:00,
2013-01-22 09:30:00,0.0,-5.8,30.44,WSW,258,8.0,27.0,76,0.00,,,0.00,Wunderground v.1.15,2013-01-22 15:30:00,
2013-01-22 09:35:00,0.2,-5.9,30.43,WNW,291,8.0,27.0,75,0.00,,,0.00,Wunderground v.1.15,2013-01-22 15:35:00,
2013-01-22 09:40:00,0.5,-5.6,30.43,West,268,8.0,8.0,75,0.00,,,0.00,Wunderground v.1.15,2013-01-22 15:40:00,
2013-01-22 09:45:00,0.0,-6.3,30.44,West,267,9.0,9.0,74,0.00,,,0.00,Wunderground v.1.15,2013-01-22 15:45:00,
2013-01-22 09:50:00,0.2,-6.4,30.44,West,275,8.0,27.0,73,0.00,,,0.00,Wunderground v.1.15,2013-01-22 15:50:00,
2013-01-22 09:55:00,0.6,-5.7,30.44,WSW,253,9.0,27.0,74,0.00,,,0.00,Wunderground v.1.15,2013-01-22 15:55:00,
2013-01-22 10:00:00,0.6,-6.0,30.44,West,271,9.0,9.0,73,0.00,,,0.00,Wunderground v.1.15,2013-01-22 16:00:00,
2013-01-22 10:05:00,1.0,-5.6,30.44,WSW,252,9.0,27.0,73,0.00,,,0.00,Wunderground v.1.15,2013-01-22 16:05:00,
2013-01-22 10:10:00,1.0,-5.9,30.44,West,260,9.0,9.0,72,0.00,,,0.00,Wunderground v.1.15,2013-01-22 16:10:00,
2013-01-22 10:15:00,1.2,-5.7,30.44,West,260,9.0,11.0,72,0.00,,,0.00,Wunderground v.1.15,2013-01-22 16:15:00,
2013-01-22 10:20:00,1.4,-5.5,30.44,WSW,254,9.0,27.0,72,0.00,,,0.00,Wunderground v.1.15,2013-01-22 16:20:00,
2013-01-22 10:25:00,1.5,-5.4,30.43,West,279,9.0,27.0,72,0.00,,,0.00,Wunderground v.1.15,2013-01-22 16:25:00,
2013-01-22 10:30:00,1.6,-5.6,30.43,WSW,257,9.0,27.0,71,0.00,,,0.00,Wunderground v.1.15,2013-01-22 16:30:00,
2013-01-22 10:35:00,2.0,-5.0,30.43,WNW,287,9.0,27.0,72,0.00,,,0.00,Wunderground v.1.15,2013-01-22 16:35:00,
2013-01-22 10:40:00,1.9,-5.6,30.44,WNW,288,8.0,8.0,70,0.00,,,0.00,Wunderground v.1.15,2013-01-22 16:40:00,
2013-01-22 10:45:00,2.0,-5.5,30.43,WNW,284,8.0,27.0,70,0.00,,,0.00,Wunderground v.1.15,2013-01-22 16:45:00,
2013-01-22 10:50:00,2.5,-4.8,30.43,West,260,8.0,27.0,71,0.00,,,0.00,Wunderground v.1.15,2013-01-22 16:50:00,
2013-01-22 10:55:00,2.5,-5.1,30.43,West,277,8.0,27.0,70,0.00,,,0.00,Wunderground v.1.15,2013-01-22 16:55:00,
2013-01-22 11:00:00,2.8,-4.8,30.43,WSW,257,9.0,27.0,70,0.00,,,0.00,Wunderground v.1.15,2013-01-22 17:00:00,
2013-01-22 11:05:00,3.2,-4.4,30.42,West,267,8.0,27.0,70,0.00,,,0.00,Wunderground v.1.15,2013-01-22 17:05:00,
2013-01-22 11:10:00,3.3,-4.6,30.42,WNW,289,8.0,27.0,69,0.00,,,0.00,Wunderground v.1.15,2013-01-22 17:10:00,
2013-01-22 11:15:00,3.8,-4.7,30.42,West,269,8.0,27.0,67,0.00,,,0.00,Wunderground v.1.15,2013-01-22 17:15:00,
2013-01-22 11:20:00,4.0,-4.5,30.42,West,265,9.0,27.0,67,0.00,,,0.00,Wunderground v.1.15,2013-01-22 17:20:00,
2013-01-22 11:30:00,4.2,-4.7,30.42,WSW,252,9.0,27.0,66,0.00,,,0.00,Wunderground v.1.15,2013-01-22 17:30:00,
2013-01-22 11:35:00,4.4,-4.5,30.42,West,268,10.0,27.0,66,0.00,,,0.00,Wunderground v.1.15,2013-01-22 17:35:00,
2013-01-22 11:45:00,4.9,-4.3,30.42,West,268,10.0,11.0,65,0.00,,,0.00,Wunderground v.1.15,2013-01-22 17:45:00,
2013-01-22 11:50:00,5.0,-4.2,30.42,WSW,257,11.0,11.0,65,0.00,,,0.00,Wunderground v.1.15,2013-01-22 17:50:00,
2013-01-22 11:55:00,5.4,-3.8,30.42,WNW,298,10.0,27.0,65,0.00,,,0.00,Wunderground v.1.15,2013-01-22 17:55:00,
2013-01-22 12:00:00,5.7,-3.9,30.42,WNW,286,9.0,27.0,64,0.00,,,0.00,Wunderground v.1.15,2013-01-22 18:00:00,
2013-01-22 12:05:00,6.0,-3.9,30.42,West,262,9.0,27.0,63,0.00,,,0.00,Wunderground v.1.15,2013-01-22 18:05:00,
2013-01-22 12:10:00,5.8,-4.1,30.41,West,273,9.0,9.0,63,0.00,,,0.00,Wunderground v.1.15,2013-01-22 18:10:00,
2013-01-22 12:20:00,6.3,-4.0,30.41,West,268,10.0,27.0,62,0.00,,,0.00,Wunderground v.1.15,2013-01-22 18:20:00,
2013-01-22 12:25:00,6.7,-3.6,30.40,West,267,10.0,27.0,62,0.00,,,0.00,Wunderground v.1.15,2013-01-22 18:25:00,
2013-01-22 12:30:00,6.9,-3.4,30.40,WSW,254,10.0,27.0,62,0.00,,,0.00,Wunderground v.1.15,2013-01-22 18:30:00,
2013-01-22 12:35:00,7.1,-3.5,30.40,West,273,10.0,27.0,61,0.00,,,0.00,Wunderground v.1.15,2013-01-22 18:35:00,
2013-01-22 12:40:00,7.3,-3.7,30.39,West,259,10.0,10.0,60,0.00,,,0.00,Wunderground v.1.15,2013-01-22 18:40:00,
2013-01-22 12:45:00,7.4,-3.6,30.39,WNW,287,10.0,27.0,60,0.00,,,0.00,Wunderground v.1.15,2013-01-22 18:45:00,
2013-01-22 12:50:00,7.3,-3.7,30.39,WNW,285,10.0,10.0,60,0.00,,,0.00,Wunderground v.1.15,2013-01-22 18:50:00,
2013-01-22 12:55:00,7.8,-2.9,30.39,West,267,10.0,27.0,61,0.00,,,0.00,Wunderground v.1.15,2013-01-22 18:55:00,
2013-01-22 13:00:00,7.9,-3.5,30.39,WNW,291,10.0,10.0,59,0.00,,,0.00,Wunderground v.1.15,2013-01-22 19:00:00,
2013-01-22 13:05:00,8.1,-2.9,30.39,West,279,9.0,27.0,60,0.00,,,0.00,Wunderground v.1.15,2013-01-22 19:05:00,
2013-01-22 13:15:00,8.4,-2.7,30.39,WSW,257,10.0,27.0,60,0.00,,,0.00,Wunderground v.1.15,2013-01-22 19:15:00,
2013-01-22 13:20:00,8.2,-2.8,30.38,WNW,282,10.0,27.0,60,0.00,,,0.00,Wunderground v.1.15,2013-01-22 19:20:00,
2013-01-22 13:25:00,7.8,-3.9,30.38,WNW,296,11.0,27.0,58,0.00,,,0.00,Wunderground v.1.15,2013-01-22 19:25:00,
2013-01-22 13:30:00,8.0,-3.7,30.38,NW,304,11.0,11.0,58,0.00,,,0.00,Wunderground v.1.15,2013-01-22 19:30:00,
2013-01-22 13:35:00,8.2,-3.2,30.39,West,277,10.0,27.0,59,0.00,,,0.00,Wunderground v.1.15,2013-01-22 19:35:00,
2013-01-22 13:40:00,8.7,-2.7,30.38,NW,313,10.0,10.0,59,0.00,,,0.00,Wunderground v.1.15,2013-01-22 19:40:00,
2013-01-22 13:45:00,9.2,-2.2,30.38,West,261,10.0,27.0,59,0.00,,,0.00,Wunderground v.1.15,2013-01-22 19:45:00,
2013-01-22 13:50:00,9.4,-2.4,30.39,WNW,284,9.0,9.0,58,0.00,,,0.00,Wunderground v.1.15,2013-01-22 19:50:00,
2013-01-22 13:55:00,8.9,-3.3,30.39,WSW,257,9.0,27.0,57,0.00,,,0.00,Wunderground v.1.15,2013-01-22 19:55:00,
2013-01-22 14:00:00,9.1,-2.7,30.38,NW,305,10.0,27.0,58,0.00,,,0.00,Wunderground v.1.15,2013-01-22 20:00:00,
2013-01-22 14:05:00,9.6,-1.9,30.39,West,275,11.0,27.0,59,0.00,,,0.00,Wunderground v.1.15,2013-01-22 20:05:00,
2013-01-22 14:10:00,9.8,-2.0,30.39,WNW,293,9.0,27.0,58,0.00,,,0.00,Wunderground v.1.15,2013-01-22 20:10:00,
2013-01-22 14:15:00,9.5,-2.0,30.39,West,273,8.0,27.0,59,0.00,,,0.00,Wunderground v.1.15,2013-01-22 20:15:00,
2013-01-22 14:25:00,9.7,-2.1,30.38,West,263,9.0,11.0,58,0.00,,,0.00,Wunderground v.1.15,2013-01-22 20:25:00,
2013-01-22 14:35:00,10.0,-2.2,30.38,WNW,294,10.0,10.0,57,0.00,,,0.00,Wunderground v.1.15,2013-01-22 20:35:00,
2013-01-22 14:40:00,10.0,-1.9,30.38,West,276,9.0,9.0,58,0.00,,,0.00,Wunderground v.1.15,2013-01-22 20:40:00,
2013-01-22 14:45:00,10.1,-2.1,30.39,WNW,288,9.0,27.0,57,0.00,,,0.00,Wunderground v.1.15,2013-01-22 20:45:00,
2013-01-22 14:50:00,10.4,-1.5,30.38,West,263,9.0,9.0,58,0.00,,,0.00,Wunderground v.1.15,2013-01-22 20:50:00,
2013-01-22 14:55:00,10.4,-2.2,30.38,WNW,299,9.0,11.0,56,0.00,,,0.00,Wunderground v.1.15,2013-01-22 20:55:00,
2013-01-22 15:00:00,10.5,-1.8,30.39,NW,306,9.0,27.0,57,0.00,,,0.00,Wunderground v.1.15,2013-01-22 21:00:00,
2013-01-22 15:05:00,10.5,-1.8,30.39,West,276,9.0,27.0,57,0.00,,,0.00,Wunderground v.1.15,2013-01-22 21:05:00,
2013-01-22 15:10:00,10.2,-2.0,30.39,WNW,282,9.0,27.0,57,0.00,,,0.00,Wunderground v.1.15,2013-01-22 21:10:00,
2013-01-22 15:15:00,10.4,-1.8,30.39,West,274,9.0,27.0,57,0.00,,,0.00,Wunderground v.1.15,2013-01-22 21:15:00,
2013-01-22 15:20:00,10.5,-1.8,30.39,WNW,286,9.0,27.0,57,0.00,,,0.00,Wunderground v.1.15,2013-01-22 21:20:00,
2013-01-22 15:30:00,10.3,-1.9,30.39,WNW,292,10.0,10.0,57,0.00,,,0.00,Wunderground v.1.15,2013-01-22 21:30:00,
2013-01-22 15:35:00,9.9,-2.3,30.38,SW,234,9.0,27.0,57,0.00,,,0.00,Wunderground v.1.15,2013-01-22 21:35:00,
2013-01-22 15:40:00,9.9,-1.9,30.38,West,275,9.0,9.0,58,0.00,,,0.00,Wunderground v.1.15,2013-01-22 21:40:00,
2013-01-22 15:45:00,10.0,-1.9,30.38,NW,307,9.0,27.0,58,0.00,,,0.00,Wunderground v.1.15,2013-01-22 21:45:00,
2013-01-22 15:50:00,9.8,-2.0,30.38,WNW,298,9.0,9.0,58,0.00,,,0.00,Wunderground v.1.15,2013-01-22 21:50:00,
2013-01-22 15:55:00,9.6,-2.2,30.38,NW,315,9.0,27.0,58,0.00,,,0.00,Wunderground v.1.15,2013-01-22 21:55:00,
2013-01-22 16:00:00,9.5,-2.0,30.38,West,279,8.0,8.0,59,0.00,,,0.00,Wunderground v.1.15,2013-01-22 22:00:00,
2013-01-22 16:05:00,9.5,-2.0,30.38,WNW,300,8.0,10.0,59,0.00,,,0.00,Wunderground v.1.15,2013-01-22 22:05:00,
2013-01-22 16:15:00,9.5,-2.0,30.38,West,270,8.0,12.0,59,0.00,,,0.00,Wunderground v.1.15,2013-01-22 22:15:00,
2013-01-22 16:20:00,9.5,-2.0,30.38,WNW,297,7.0,7.0,59,0.00,,,0.00,Wunderground v.1.15,2013-01-22 22:20:00,
2013-01-22 16:25:00,9.4,-2.1,30.38,WNW,298,6.0,27.0,59,0.00,,,0.00,Wunderground v.1.15,2013-01-22 22:25:00,
2013-01-22 16:30:00,9.4,-2.1,30.38,WNW,283,6.0,6.0,59,0.00,,,0.00,Wunderground v.1.15,2013-01-22 22:30:00,
2013-01-22 16:35:00,9.2,-1.9,30.38,WNW,295,6.0,27.0,60,0.00,,,0.00,Wunderground v.1.15,2013-01-22 22:35:00,
2013-01-22 16:40:00,9.2,-1.9,30.38,West,279,6.0,27.0,60,0.00,,,0.00,Wunderground v.1.15,2013-01-22 22:40:00,
2013-01-22 16:50:00,9.3,-2.2,30.38,WNW,296,6.0,27.0,59,0.00,,,0.00,Wunderground v.1.15,2013-01-22 22:50:00,
2013-01-22 16:55:00,9.2,-1.9,30.38,WNW,288,6.0,27.0,60,0.00,,,0.00,Wunderground v.1.15,2013-01-22 22:55:00,
2013-01-22 17:00:00,9.1,-1.6,30.38,West,272,6.0,27.0,61,0.00,,,0.00,Wunderground v.1.15,2013-01-22 23:00:00,
2013-01-22 17:10:00,9.0,-1.4,30.38,WNW,286,6.0,6.0,62,0.00,,,0.00,Wunderground v.1.15,2013-01-22 23:10:00,
2013-01-22 17:15:00,8.9,-1.5,30.38,West,270,5.0,27.0,62,0.00,,,0.00,Wunderground v.1.15,2013-01-22 23:15:00,
2013-01-22 17:25:00,8.9,-1.5,30.38,NW,312,4.0,27.0,62,0.00,,,0.00,Wunderground v.1.15,2013-01-22 23:25:00,
2013-01-22 17:30:00,8.9,-1.5,30.38,WNW,301,4.0,27.0,62,0.00,,,0.00,Wunderground v.1.15,2013-01-22 23:30:00,
2013-01-22 17:35:00,8.9,-1.5,30.38,WNW,296,5.0,27.0,62,0.00,,,0.00,Wunderground v.1.15,2013-01-22 23:35:00,
2013-01-22 17:40:00,9.0,-1.7,30.38,WNW,298,5.0,5.0,61,0.00,,,0.00,Wunderground v.1.15,2013-01-22 23:40:00,
2013-01-22 17:45:00,9.0,-1.4,30.38,West,281,5.0,6.0,62,0.00,,,0.00,Wunderground v.1.15,2013-01-22 23:45:00,
2013-01-22 17:50:00,9.0,-1.4,30.38,West,273,6.0,27.0,62,0.00,,,0.00,Wunderground v.1.15,2013-01-22 23:50:00,
2013-01-22 17:55:00,9.0,-1.4,30.38,West,275,6.0,27.0,62,0.00,,,0.00,Wunderground v.1.15,2013-01-22 23:55:00,
2013-01-22 18:00:00,9.0,-1.4,30.38,WNW,297,6.0,6.0,62,0.00,,,0.00,Wunderground v.1.15,2013-01-23 00:00:00,
2013-01-22 18:05:00,9.0,-1.1,30.38,WNW,294,5.0,27.0,63,0.00,,,0.00,Wunderground v.1.15,2013-01-23 00:05:00,
2013-01-22 18:10:00,9.0,-1.1,30.38,WNW,300,5.0,5.0,63,0.00,,,0.00,Wunderground v.1.15,2013-01-23 00:10:00,
2013-01-22 18:15:00,9.1,-1.3,30.38,NW,310,6.0,6.0,62,0.00,,,0.00,Wunderground v.1.15,2013-01-23 00:15:00,
2013-01-22 18:20:00,9.1,-1.3,30.38,WNW,292,5.0,5.0,62,0.00,,,0.00,Wunderground v.1.15,2013-01-23 00:20:00,
2013-01-22 18:25:00,9.1,-1.0,30.38,WNW,294,4.0,27.0,63,0.00,,,0.00,Wunderground v.1.15,2013-01-23 00:25:00,
2013-01-22 18:30:00,9.1,-1.3,30.38,WNW,302,4.0,27.0,62,0.00,,,0.00,Wunderground v.1.15,2013-01-23 00:30:00,
2013-01-22 18:35:00,9.1,-1.6,30.38,WNW,302,5.0,27.0,61,0.00,,,0.00,Wunderground v.1.15,2013-01-23 00:35:00,
2013-01-22 18:40:00,9.1,-1.6,30.38,WNW,289,5.0,27.0,61,0.00,,,0.00,Wunderground v.1.15,2013-01-23 00:40:00,
2013-01-22 18:45:00,9.1,-1.6,30.38,NW,315,5.0,27.0,61,0.00,,,0.00,Wunderground v.1.15,2013-01-23 00:45:00,
2013-01-22 18:55:00,9.0,-1.7,30.37,NW,311,5.0,7.0,61,0.00,,,0.00,Wunderground v.1.15,2013-01-23 00:55:00,
2013-01-22 19:00:00,9.0,-1.7,30.38,WNW,302,5.0,5.0,61,0.00,,,0.00,Wunderground v.1.15,2013-01-23 01:00:00,
2013-01-22 19:05:00,9.0,-1.4,30.38,NW,326,4.0,27.0,62,0.00,,,0.00,Wunderground v.1.15,2013-01-23 01:05:00,
2013-01-22 19:10:00,8.9,-1.5,30.38,WNW,294,4.0,27.0,62,0.00,,,0.00,Wunderground v.1.15,2013-01-23 01:10:00,
2013-01-22 19:15:00,8.8,-1.6,30.38,NNW,336,5.0,27.0,62,0.00,,,0.00,Wunderground v.1.15,2013-01-23 01:15:00,
2013-01-22 19:20:00,8.7,-1.7,30.38,WNW,283,5.0,27.0,62,0.00,,,0.00,Wunderground v.1.15,2013-01-23 01:20:00,
2013-01-22 19:25:00,8.7,-1.7,30.38,NW,306,5.0,27.0,62,0.00,,,0.00,Wunderground v.1.15,2013-01-23 01:25:00,
2013-01-22 19:30:00,8.7,-1.7,30.38,WNW,302,5.0,5.0,62,0.00,,,0.00,Wunderground v.1.15,2013-01-23 01:30:00,
2013-01-22 19:35:00,8.7,-1.7,30.38,NW,306,5.0,27.0,62,0.00,,,0.00,Wunderground v.1.15,2013-01-23 01:35:00,
2013-01-22 19:40:00,8.7,-1.3,30.38,NW,325,4.0,4.0,63,0.00,,,0.00,Wunderground v.1.15,2013-01-23 01:40:00,
2013-01-22 19:45:00,8.7,-1.3,30.38,WNW,302,4.0,27.0,63,0.00,,,0.00,Wunderground v.1.15,2013-01-23 01:45:00,
2013-01-22 19:50:00,8.7,-1.3,30.38,NW,304,4.0,27.0,63,0.00,,,0.00,Wunderground v.1.15,2013-01-23 01:50:00,
2013-01-22 19:55:00,8.7,-1.3,30.38,NW,306,4.0,27.0,63,0.00,,,0.00,Wunderground v.1.15,2013-01-23 01:55:00,
2013-01-22 20:00:00,8.7,-1.3,30.38,NW,316,5.0,5.0,63,0.00,,,0.00,Wunderground v.1.15,2013-01-23 02:00:00,
2013-01-22 20:05:00,8.7,-1.3,30.38,NW,310,5.0,27.0,63,0.00,,,0.00,Wunderground v.1.15,2013-01-23 02:05:00,
2013-01-22 20:10:00,8.7,-1.3,30.38,NW,321,4.0,27.0,63,0.00,,,0.00,Wunderground v.1.15,2013-01-23 02:10:00,
2013-01-22 20:15:00,8.6,-1.4,30.38,NW,311,4.0,27.0,63,0.00,,,0.00,Wunderground v.1.15,2013-01-23 02:15:00,
2013-01-22 20:20:00,8.6,-1.4,30.38,NW,319,4.0,4.0,63,0.00,,,0.00,Wunderground v.1.15,2013-01-23 02:20:00,
2013-01-22 20:25:00,8.7,-1.3,30.38,NW,317,4.0,6.0,63,0.00,,,0.00,Wunderground v.1.15,2013-01-23 02:25:00,
2013-01-22 20:30:00,8.7,-1.3,30.38,NW,314,4.0,27.0,63,0.00,,,0.00,Wunderground v.1.15,2013-01-23 02:30:00,
2013-01-22 20:35:00,8.7,-1.3,30.38,WNW,303,5.0,27.0,63,0.00,,,0.00,Wunderground v.1.15,2013-01-23 02:35:00,
2013-01-22 20:40:00,8.7,-1.3,30.39,NW,322,5.0,5.0,63,0.00,,,0.00,Wunderground v.1.15,2013-01-23 02:40:00,
2013-01-22 20:50:00,8.7,-1.3,30.38,WNW,301,5.0,27.0,63,0.00,,,0.00,Wunderground v.1.15,2013-01-23 02:50:00,
2013-01-22 20:55:00,8.7,-1.3,30.38,NW,311,4.0,27.0,63,0.00,,,0.00,Wunderground v.1.15,2013-01-23 02:55:00,
2013-01-22 21:00:00,8.7,-1.3,30.38,NNW,327,4.0,4.0,63,0.00,,,0.00,Wunderground v.1.15,2013-01-23 03:00:00,
2013-01-22 21:05:00,8.7,-1.0,30.38,NNW,327,4.0,27.0,64,0.00,,,0.00,Wunderground v.1.15,2013-01-23 03:05:00,
2013-01-22 21:10:00,8.8,-0.9,30.38,NW,308,3.0,27.0,64,0.00,,,0.00,Wunderground v.1.15,2013-01-23 03:10:00,
2013-01-22 21:20:00,8.8,-0.9,30.38,WNW,291,4.0,27.0,64,0.00,,,0.00,Wunderground v.1.15,2013-01-23 03:20:00,
2013-01-22 21:25:00,8.8,-0.9,30.38,NW,305,4.0,27.0,64,0.00,,,0.00,Wunderground v.1.15,2013-01-23 03:25:00,
2013-01-22 21:30:00,8.8,-0.9,30.38,NW,319,4.0,4.0,64,0.00,,,0.00,Wunderground v.1.15,2013-01-23 03:30:00,
2013-01-22 21:35:00,8.8,-0.9,30.39,NW,321,3.0,27.0,64,0.00,,,0.00,Wunderground v.1.15,2013-01-23 03:35:00,
2013-01-22 21:45:00,8.8,-0.9,30.38,NNW,328,3.0,27.0,64,0.00,,,0.00,Wunderground v.1.15,2013-01-23 03:45:00,
2013-01-22 21:50:00,8.8,-0.9,30.38,NNW,327,3.0,3.0,64,0.00,,,0.00,Wunderground v.1.15,2013-01-23 03:50:00,
2013-01-22 21:55:00,8.8,-0.6,30.38,NNW,327,3.0,27.0,65,0.00,,,0.00,Wunderground v.1.15,2013-01-23 03:55:00,
2013-01-22 22:00:00,8.9,-0.5,30.38,NW,311,3.0,27.0,65,0.00,,,0.00,Wunderground v.1.15,2013-01-23 04:00:00,
2013-01-22 22:05:00,8.9,-0.5,30.39,NW,307,3.0,27.0,65,0.00,,,0.00,Wunderground v.1.15,2013-01-23 04:05:00,
2013-01-22 22:10:00,8.9,-0.5,30.38,WNW,303,3.0,27.0,65,0.00,,,0.00,Wunderground v.1.15,2013-01-23 04:10:00,
2013-01-22 22:15:00,8.9,-0.5,30.39,NW,315,3.0,27.0,65,0.00,,,0.00,Wunderground v.1.15,2013-01-23 04:15:00,
2013-01-22 22:20:00,8.9,-0.8,30.39,NW,317,3.0,3.0,64,0.00,,,0.00,Wunderground v.1.15,2013-01-23 04:20:00,
2013-01-22 22:25:00,8.9,-0.8,30.39,WNW,303,3.0,4.0,64,0.00,,,0.00,Wunderground v.1.15,2013-01-23 04:25:00,
2013-01-22 22:30:00,9.0,-0.7,30.39,NW,310,4.0,4.0,64,0.00,,,0.00,Wunderground v.1.15,2013-01-23 04:30:00,
2013-01-22 22:35:00,9.0,-0.7,30.39,WNW,298,4.0,27.0,64,0.00,,,0.00,Wunderground v.1.15,2013-01-23 04:35:00,
2013-01-22 22:40:00,9.0,-0.7,30.39,WNW,303,4.0,27.0,64,0.00,,,0.00,Wunderground v.1.15,2013-01-23 04:40:00,
2013-01-22 22:45:00,9.0,-0.7,30.39,WNW,302,4.0,27.0,64,0.00,,,0.00,Wunderground v.1.15,2013-01-23 04:45:00,
2013-01-22 22:50:00,9.1,-0.6,30.39,West,277,4.0,27.0,64,0.00,,,0.00,Wunderground v.1.15,2013-01-23 04:50:00,
2013-01-22 22:55:00,9.1,-1.0,30.39,West,262,4.0,27.0,63,0.00,,,0.00,Wunderground v.1.15,2013-01-23 04:55:00,
2013-01-22 23:00:00,9.1,-1.0,30.39,WNW,294,4.0,27.0,63,0.00,,,0.00,Wunderground v.1.15,2013-01-23 05:00:00,
2013-01-22 23:05:00,9.1,-0.6,30.40,WNW,302,4.0,27.0,64,0.00,,,0.00,Wunderground v.1.15,2013-01-23 05:05:00,
2013-01-22 23:10:00,9.1,-0.6,30.40,WNW,298,4.0,4.0,64,0.00,,,0.00,Wunderground v.1.15,2013-01-23 05:10:00,
2013-01-22 23:20:00,9.1,-0.6,30.40,WNW,302,3.0,3.0,64,0.00,,,0.00,Wunderground v.1.15,2013-01-23 05:20:00,
2013-01-22 23:30:00,9.1,-0.6,30.40,NNW,331,3.0,27.0,64,0.00,,,0.00,Wunderground v.1.15,2013-01-23 05:30:00,
2013-01-22 23:35:00,9.2,-0.5,30.39,NW,317,3.0,27.0,64,0.00,,,0.00,Wunderground v.1.15,2013-01-23 05:35:00,
2013-01-22 23:40:00,9.2,-0.5,30.39,NW,315,3.0,27.0,64,0.00,,,0.00,Wunderground v.1.15,2013-01-23 05:40:00,
2013-01-22 23:50:00,9.2,-0.5,30.39,WNW,296,4.0,27.0,64,0.00,,,0.00,Wunderground v.1.15,2013-01-23 05:50:00,